Total_Precipitation_Accumulation
2.12 2.05 1.97 1.84 1.86 1.89 1.89 2.01 2.19 2.01 1.57 1.27 1.21 1.23 1.29 1.34 1.54 1.48 1.37 1.55 1.52 1.45 1.47 1.53 1.54 1.54 1.56 1.67 1.88 2.12 2.26 2.31 2.32 2.37 2.41 2.34 2.27 2.32
1.89 1.91 1.88 1.77 1.70 1.73 1.82 1.88 1.98 2.06 1.78 1.25 1.10 1.14 1.25 1.29 1.44 1.32 1.28 1.51 1.46 1.40 1.36 1.34 1.35 1.34 1.35 1.38 1.48 1.66 1.80 1.91 2.03 2.16 2.36 2.53 2.57 2.57
1.81 1.76 1.72 1.69 1.73 1.69 1.70 1.78 1.88 1.95 1.90 1.39 1.15 1.16 1.28 1.32 1.34 1.27 1.23 1.25 1.26 1.40 1.32 1.26 1.23 1.21 1.22 1.27 1.31 1.39 1.47 1.57 1.71 1.91 2.11 2.32 2.44 2.43
1.70 1.69 1.65 1.62 1.62 1.62 1.68 1.71 1.75 1.79 1.84 1.62 1.31 1.21 1.22 1.22 1.23 1.23 1.19 1.15 1.12 1.31 1.29 1.24 1.21 1.16 1.14 1.15 1.21 1.26 1.29 1.36 1.44 1.56 1.72 1.92 2.12 2.27
1.55 1.58 1.57 1.62 1.67 1.62 1.60 1.58 1.55 1.56 1.63 1.65 1.43 1.21 1.15 1.14 1.18 1.18 1.13 1.09 1.03 1.12 1.20 1.26 1.25 1.21 1.19 1.16 1.20 1.21 1.19 1.17 1.20 1.31 1.46 1.64 1.80 1.96
1.45 1.48 1.50 1.54 1.55 1.56 1.60 1.58 1.53 1.53 1.53 1.58 1.52 1.38 1.30 1.23 1.27 1.28 1.25 1.14 1.08 1.00 1.11 1.17 1.27 1.26 1.17 1.08 1.04 1.07 1.12 1.17 1.24 1.32 1.42 1.50 1.61 1.75
1.37 1.38 1.43 1.56 1.61 1.59 1.57 1.56 1.61 1.72 1.72 1.73 1.63 1.46 1.33 1.29 1.26 1.18 1.22 1.20 1.17 1.12 1.11 1.07 1.03 1.02 1.04 1.05 1.04 1.03 1.11 1.21 1.30 1.36 1.42 1.51 1.58 1.67
1.31 1.27 1.29 1.37 1.39 1.46 1.50 1.50 1.61 1.77 1.90 1.89 1.71 1.43 1.20 1.10 1.08 1.15 1.27 1.36 1.30 1.02 0.99 1.04 1.01 1.05 1.00 0.99 1.13 1.10 1.10 1.16 1.21 1.24 1.29 1.37 1.46 1.56
1.22 1.19 1.16 1.15 1.20 1.10 1.21 1.29 1.34 1.49 1.60 1.55 1.47 1.23 1.09 1.07 1.23 1.36 1.32 1.31 1.15 0.96 1.05 1.15 1.09 1.10 1.02 1.04 1.18 1.10 1.10 1.16 1.19 1.22 1.24 1.28 1.34 1.42
1.02 0.96 0.95 0.93 0.95 1.03 1.09 1.17 1.10 1.08 1.11 1.10 1.10 1.05 1.04 1.12 1.33 1.55 1.58 1.55 1.29 1.09 1.09 1.22 1.07 1.05 1.03 1.06 1.16 1.11 1.12 1.18 1.23 1.26 1.27 1.28 1.31 1.37
0.86 0.81 0.81 0.79 0.95 1.13 1.14 1.18 1.02 0.92 0.99 1.10 1.18 1.22 1.32 1.38 1.45 1.71 1.89 1.98 1.75 1.28 1.06 1.12 1.02 0.98 1.03 1.06 1.08 1.12 1.11 1.15 1.19 1.21 1.22 1.23 1.28 1.35
0.78 0.75 0.84 0.83 1.00 1.15 1.10 1.13 1.08 0.90 0.90 0.98 1.04 1.09 1.09 1.18 1.36 1.40 1.61 1.96 1.81 1.47 1.02 1.09 1.11 1.20 1.46 1.14 1.01 1.00 1.03 1.11 1.16 1.21 1.26 1.29 1.33 1.33
0.85 0.76 0.74 0.91 1.03 1.13 1.10 1.03 1.08 1.09 1.08 1.10 1.07 1.04 1.05 1.10 1.15 1.14 1.27 1.72 1.99 1.61 1.01 1.34 1.59 1.38 1.63 1.35 1.06 1.00 1.01 1.03 1.09 1.17 1.25 1.33 1.44 1.57
0.92 0.79 0.78 0.97 1.02 1.03 1.02 1.06 1.17 1.18 1.10 1.18 1.21 1.16 1.08 1.04 1.01 1.03 1.09 1.22 1.41 1.45 1.15 1.50 2.04 1.71 1.87 1.64 1.19 1.07 1.05 1.08 1.14 1.22 1.28 1.45 1.52 1.60
0.91 0.93 0.97 1.01 0.98 0.92 0.96 1.06 1.07 1.02 1.06 1.15 1.14 1.07 1.02 1.00 1.02 1.10 1.16 1.21 1.26 1.20 1.17 1.28 1.63 1.72 2.02 2.00 1.46 1.12 1.15 1.19 1.17 1.29 1.37 1.44 1.46 1.53
0.96 0.94 0.92 0.90 0.93 0.92 0.91 0.92 0.93 0.99 1.11 1.14 1.10 1.06 1.07 1.13 1.20 1.22 1.29 1.31 1.42 1.33 1.18 1.15 1.29 1.68 1.94 1.64 1.62 1.44 1.25 1.41 1.34 1.40 1.47 1.49 1.51 1.53
1.13 1.03 0.91 0.86 0.89 0.88 0.86 0.85 0.90 1.00 1.11 1.11 1.16 1.19 1.20 1.22 1.22 1.23 1.35 1.41 1.47 1.27 1.15 1.13 1.21 1.38 1.55 1.60 1.67 1.45 1.30 1.36 1.46 1.60 1.76 1.81 1.67 1.65
1.25 1.09 0.91 0.85 0.86 0.86 0.86 0.88 0.91 0.98 1.06 1.16 1.24 1.29 1.32 1.32 1.28 1.23 1.31 1.46 1.45 1.25 1.13 1.11 1.27 1.55 1.58 1.49 1.43 1.43 1.41 1.47 1.53 1.62 1.83 2.06 1.85 1.63
1.17 0.98 0.84 0.80 0.80 0.84 0.89 0.93 0.94 0.93 1.04 1.22 1.33 1.39 1.43 1.41 1.38 1.36 1.33 1.38 1.36 1.25 1.18 1.18 1.41 1.87 1.94 1.40 1.11 1.22 1.56 1.65 1.59 1.65 1.77 1.98 2.14 1.86
0.95 0.89 0.86 0.85 0.88 0.93 0.96 0.99 1.02 1.04 1.11 1.19 1.29 1.39 1.51 1.58 1.52 1.41 1.37 1.38 1.41 1.35 1.26 1.17 1.27 1.70 2.17 1.84 1.47 1.22 1.34 1.72 1.95 2.01 1.80 1.67 1.73 1.69
0.84 0.85 0.88 0.93 0.98 1.01 1.04 1.07 1.12 1.16 1.16 1.24 1.27 1.35 1.49 1.65 1.57 1.41 1.42 1.42 1.50 1.51 1.41 1.17 1.08 1.29 1.73 2.03 1.79 1.30 1.30 1.41 1.74 2.23 2.20 2.03 1.78 1.59
0.81 0.88 0.93 1.01 1.09 1.15 1.17 1.18 1.20 1.16 1.20 1.28 1.29 1.32 1.40 1.57 1.61 1.51 1.51 1.53 1.46 1.42 1.36 1.22 1.17 1.34 1.67 1.96 1.63 1.21 1.21 1.23 1.26 1.36 1.75 2.33 2.93 3.00
0.92 0.95 0.97 1.04 1.12 1.19 1.23 1.23 1.21 1.15 1.16 1.30 1.37 1.38 1.43 1.50 1.46 1.53 1.54 1.55 1.57 1.49 1.45 1.41 1.32 1.34 1.41 1.45 1.46 1.29 1.18 1.17 1.15 1.23 1.47 1.59 1.78 2.05